Regional Weather Roundup
Issued by NWS

Home | Current Version | Previous Version | Graphics & Text | Print | Product List | Glossary Off
Versions: 1 2 3 4 5 6 7 8 9 10 11 12 13 14 15 16 17 18 19 20 21 22 23 24 25 26 27 28 29 30 31 32 33 34 35 36 37 38 39 40 41 42 43 44 45 46 47 48 49 50

668
ASUS43 KFSD 210810
RWRSD

WEATHER ROUNDUP FOR SOUTH DAKOTA
NATIONAL WEATHER SERVICE SIOUX FALLS SD
200 AM CST TUE FEB 21 2017

NOTE: "FAIR" INDICATES FEW OR NO CLOUDS BELOW 12,000 FEET WITH NO
SIGNIFICANT WEATHER AND/OR OBSTRUCTIONS TO VISIBILITY.


SDZ001>005-009-010-012>017-210900-
NORTHWEST AND NORTH CENTRAL SOUTH DAKOTA

CITY           SKY/WX    TMP DP  RH WIND       PRES   REMARKS
BUFFALO          N/A     48  32  53 SW21      29.65R
FAITH            N/A     42  30  62 SW14      29.71S
MOBRIDGE       CLOUDY    37  30  75 SE12      29.68F
$$

SDZ012>016-024>037-041>051-057-063-072>074-210900-
SOUTHWEST AND SOUTH CENTRAL SOUTH DAKOTA

CITY           SKY/WX    TMP DP  RH WIND       PRES   REMARKS
RAPID CTY ARPT CLEAR     58  28  32 W23G29    29.76S
PIERRE         CLEAR     36  27  69 SE8       29.74F
CUSTER         CLOUDY    43  27  53 W16G28    29.85F
ELLSWORTH AFB  CLEAR     54  30  39 SW21G26   29.75S
PHILIP         MOCLDY    53  32  44 W16       29.75S
PINE RIDGE     CLEAR     41  29  62 E3        29.87S
SPEARFISH      FAIR      54  28  37 SW26G38   29.77R
WINNER         FAIR      46  28  49 S16       29.82F
$$

SDZ004>011-016>023-039-040-210900-
NORTHEAST SOUTH DAKOTA

CITY           SKY/WX    TMP DP  RH WIND       PRES   REMARKS
ABERDEEN       CLEAR     34  31  88 S10       29.79F WCI  26
WATERTOWN      CLEAR     31  30  96 SE6       29.83F WCI  25
BROOKINGS      PTCLDY    32  31  96 S8        29.87S WCI  25
SISSETON         N/A     36  31  82 SW13      29.80S
$$

SDZ017-020-022-023-036>040-048>070-210900-
SOUTHEAST SOUTH DAKOTA

CITY           SKY/WX    TMP DP  RH WIND       PRES   REMARKS
SIOUX FALLS    PTCLDY    28  28 100 CALM      29.90R FOG
HURON          CLEAR     35  33  92 S7        29.83F WCI  29
CHAMBERLAIN    CLEAR     37  31  79 S7        29.81F
MITCHELL       PTCLDY    36  33  89 S9        29.87F
YANKTON        CLEAR     36  32  87 SE5       29.90S
$$

ABBREVIATIONS USED IN REMARKS
   TC - TEMPERATURE IN CELSIUS
  WCI - WIND CHILL INDEX
   HX - HEAT INDEX
  VSB - VISIBILITY





USA.gov is the U.S. government's official web portal to all federal, state and local government web resources and services.